ROMMA est une association bénévole à but non lucratif. Votre soutien est indispensable : ADHERER à ROMMA ou FAIRE un DON

Chambon - (38, Isère)

Oisans (2460 m)   Longitude: 06° 10' 42" E   Latitude: 45° 01' 32" N Station partenaire n°803
 

Détail journalier du     <<     >>

Température Humidité Vent Dir Rafale Dir. rafale Neige 1 Neige 2
Heure (°C) (%) (km/h) (km/h) (cm) (cm)
01:00 -0.84433ENE65ENE172224
02:00 -0.65524ENE60ENE172224
03:00 -0.45918NE57NE171224
04:00 -0.66318NE48NE170224
05:00 -0.66618ENE48ENE171224
06:00 -0.86931ENE59ENE171224
07:00 -0.87133NE53NE171224
08:00 -0.97023NE51NE171224
09:00 -0.76810NNE41NNE171224
10:00 -1.6777NNE41NNE171224
11:00 -0.97411ENE39ENE171224
12:00 -0.16222NE64NE171224
13:00 0.46525NE55NE171224
14:00 3.35910N44ENE171224
15:00 0.7749N32ENE170224
16:00 1.17411NE33NE171224
17:00 1.7717ENE21E170223
18:00 2.2675E21E170223
19:00 1.1697ENE25ENE170223
20:00 1.26810ENE28ENE170223
21:00 0.27411NE28ENE170223
22:00 -0.27320NNE62ENE170223
23:00 -0.36235ENE65ENE169223
minuit -0.14943ENE71ENE169223

Graphique du 21-04-2019

 

Serveur OMMA